Location: *
(46.1866°S, 178.5290°W)
Time: 10:33:49
(UTC+00:00)

H-2A R/B - Pass Details

Date: 19 May 2021
Orbit: 529 x 651 km, 98.3° (Epoch: 13 June)

Event Time Altitude Azimuth Distance (km) Brightness Sun altitude
Exits shadow 06:38:11 19° 11° (N) 1,324 4.2 -22.3°
Drops below altitude 10° 06:39:25 10° 4° (N) 1,804 5.0 -22.5°
Sets 06:41:35 0° 358° (N) 2,698 5.9 -22.9°
